TimePDT,TemperatureF,Dew PointF,Humidity,Sea Level PressureIn,VisibilityMPH,Wind Direction,Wind SpeedMPH,Gust SpeedMPH,PrecipitationIn,Events,Conditions,WindDirDegrees,DateUTC
12:09 AM,46.4,46.4,100,29.78,10.0,South,8.1,-,N/A,,Overcast,190,2013-06-24 07:09:00
12:39 AM,46.4,46.4,100,29.77,10.0,SSW,9.2,-,N/A,,Overcast,210,2013-06-24 07:39:00
12:56 AM,46.9,46.0,97,29.70,10.0,SSW,8.1,-,N/A,,Overcast,210,2013-06-24 07:56:00
1:20 AM,46.4,46.4,100,29.77,10.0,South,6.9,-,N/A,,Overcast,190,2013-06-24 08:20:00
1:36 AM,46.4,46.4,100,29.77,10.0,SSW,5.8,-,N/A,,Overcast,210,2013-06-24 08:36:00
1:56 AM,46.9,45.0,93,29.70,10.0,SW,6.9,16.1,N/A,,Overcast,220,2013-06-24 08:56:00
2:16 AM,46.4,44.6,93,29.77,10.0,Variable,3.5,-,N/A,,Overcast,0,2013-06-24 09:16:00
2:45 AM,46.4,44.6,93,29.76,10.0,Variable,3.5,-,N/A,,Overcast,0,2013-06-24 09:45:00
2:56 AM,46.9,44.1,90,29.69,10.0,Variable,5.8,-,N/A,,Overcast,0,2013-06-24 09:56:00
3:56 AM,45.0,45.0,100,29.69,10.0,Calm,Calm,-,0.01,Rain,Light Rain,0,2013-06-24 10:56:00
4:08 AM,44.6,44.6,100,29.75,6.0,Variable,3.5,-,0.01,Rain,Light Rain,0,2013-06-24 11:08:00
4:13 AM,44.6,44.6,100,29.75,1.8,WSW,6.9,-,0.01,Rain,Light Rain,240,2013-06-24 11:13:00
4:16 AM,44.6,44.6,100,29.75,1.2,WSW,4.6,-,0.01,Rain,Light Rain,240,2013-06-24 11:16:00
4:25 AM,44.6,44.6,100,29.74,1.2,SW,6.9,-,0.02,Rain,Light Rain,220,2013-06-24 11:25:00
4:27 AM,44.6,42.8,93,29.74,1.5,SSW,8.1,-,0.02,Rain,Light Rain,210,2013-06-24 11:27:00
4:30 AM,44.6,42.8,93,29.74,3.0,SW,8.1,-,0.03,Rain,Light Rain,220,2013-06-24 11:30:00
4:56 AM,43.0,42.1,97,29.68,7.0,SSW,9.2,-,0.05,Rain,Light Rain,210,2013-06-24 11:56:00
5:34 AM,42.8,42.8,100,29.73,1.2,South,8.1,-,0.02,Rain,Light Rain,180,2013-06-24 12:34:00
5:41 AM,42.8,42.8,100,29.73,0.2,South,6.9,-,0.02,Fog-Rain,Light Rain,190,2013-06-24 12:41:00
5:51 AM,42.8,42.8,100,29.73,0.8,South,6.9,-,0.02,Rain,Light Rain,190,2013-06-24 12:51:00
5:56 AM,43.0,43.0,100,29.68,1.2,South,4.6,-,0.02,Rain,Light Rain,190,2013-06-24 12:56:00
6:01 AM,42.8,42.8,100,29.73,2.0,South,5.8,-,0.01,Rain,Light Rain,190,2013-06-24 13:01:00
6:08 AM,42.8,42.8,100,29.73,4.0,SSW,5.8,-,0.01,Rain,Light Rain,200,2013-06-24 13:08:00
6:45 AM,42.8,42.8,100,29.73,5.0,Variable,4.6,-,0.04,Rain,Light Rain,0,2013-06-24 13:45:00
6:56 AM,43.0,42.1,97,29.68,5.0,WSW,5.8,-,0.04,,Overcast,240,2013-06-24 13:56:00
7:37 AM,42.8,42.8,100,29.74,2.5,Variable,3.5,-,0.01,,Overcast,0,2013-06-24 14:37:00
7:39 AM,42.8,42.8,100,29.74,1.2,Variable,5.8,-,0.01,,Overcast,0,2013-06-24 14:39:00
7:56 AM,43.0,43.0,100,29.70,0.8,Calm,Calm,-,0.01,,Overcast,0,2013-06-24 14:56:00
8:07 AM,42.8,42.8,100,29.74,0.2,South,6.9,-,N/A,Fog,Fog,190,2013-06-24 15:07:00
8:24 AM,42.8,42.8,100,29.74,0.2,Variable,5.8,-,N/A,Fog,Fog,0,2013-06-24 15:24:00
8:44 AM,42.8,42.8,100,29.74,0.2,South,5.8,-,N/A,Fog,Fog,180,2013-06-24 15:44:00
8:56 AM,43.0,43.0,100,29.71,0.2,South,5.8,-,N/A,Fog,Fog,190,2013-06-24 15:56:00
9:56 AM,44.1,44.1,100,29.72,0.5,SW,11.5,-,N/A,Fog,Fog,220,2013-06-24 16:56:00
10:00 AM,44.6,42.8,93,29.75,1.5,SW,12.7,-,N/A,,Overcast,220,2013-06-24 17:00:00
10:02 AM,44.6,42.8,93,29.75,3.0,SW,10.4,17.3,N/A,,Overcast,220,2013-06-24 17:02:00
10:05 AM,44.6,44.6,100,29.75,1.8,SW,10.4,17.3,N/A,,Overcast,220,2013-06-24 17:05:00
10:14 AM,44.6,44.6,100,29.75,0.5,SW,10.4,16.1,N/A,Fog,Fog,230,2013-06-24 17:14:00
10:28 AM,44.6,44.6,100,29.75,0.2,SSW,8.1,-,N/A,Fog,Fog,210,2013-06-24 17:28:00
10:40 AM,44.6,44.6,100,29.75,0.2,South,8.1,-,N/A,Fog,Fog,190,2013-06-24 17:40:00
10:56 AM,45.0,45.0,100,29.73,0.2,South,4.6,-,N/A,Fog,Fog,190,2013-06-24 17:56:00
11:47 AM,46.4,44.6,93,29.75,1.0,South,8.1,16.1,N/A,,Overcast,190,2013-06-24 18:47:00
11:52 AM,46.4,46.4,100,29.75,0.2,South,6.9,-,N/A,Fog,Fog,180,2013-06-24 18:52:00
11:56 AM,46.0,46.0,100,29.72,0.2,South,8.1,-,N/A,Fog,Fog,190,2013-06-24 18:56:00
12:01 PM,46.4,46.4,100,29.75,0.5,South,10.4,16.1,N/A,Fog,Fog,190,2013-06-24 19:01:00
12:08 PM,46.4,46.4,100,29.75,1.0,Variable,6.9,16.1,N/A,,Mist,0,2013-06-24 19:08:00
12:19 PM,48.2,48.2,100,29.75,4.0,South,9.2,17.3,N/A,,Overcast,180,2013-06-24 19:19:00
12:56 PM,48.9,46.9,93,29.72,10.0,South,10.4,17.3,N/A,,Overcast,180,2013-06-24 19:56:00
1:04 PM,50.0,46.4,87,29.76,10.0,South,11.5,17.3,N/A,,Overcast,180,2013-06-24 20:04:00
1:34 PM,51.8,48.2,88,29.76,10.0,Variable,6.9,16.1,N/A,,Overcast,0,2013-06-24 20:34:00
1:56 PM,50.0,46.9,89,29.71,10.0,South,8.1,-,N/A,,Overcast,170,2013-06-24 20:56:00
2:12 PM,50.0,46.4,87,29.76,10.0,South,8.1,-,N/A,,Overcast,180,2013-06-24 21:12:00
2:34 PM,48.2,48.2,100,29.76,2.5,South,9.2,-,0.01,Rain,Light Rain,170,2013-06-24 21:34:00
2:38 PM,48.2,48.2,100,29.76,1.5,South,9.2,-,0.02,Rain,Light Rain,180,2013-06-24 21:38:00
2:43 PM,48.2,48.2,100,29.76,1.0,South,8.1,-,0.03,Rain,Light Rain,180,2013-06-24 21:43:00
2:53 PM,48.2,48.2,100,29.76,1.5,South,6.9,-,0.03,,Overcast,190,2013-06-24 21:53:00
2:56 PM,48.9,48.0,97,29.73,2.5,SSW,6.9,-,0.03,,Overcast,200,2013-06-24 21:56:00
3:07 PM,48.2,48.2,100,29.76,1.8,Variable,5.8,-,N/A,,Overcast,0,2013-06-24 22:07:00
3:16 PM,50.0,48.2,94,29.77,2.5,Variable,5.8,-,N/A,,Overcast,0,2013-06-24 22:16:00
3:23 PM,50.0,48.2,94,29.77,10.0,Variable,3.5,-,N/A,,Overcast,0,2013-06-24 22:23:00
3:49 PM,50.0,48.2,94,29.77,10.0,Variable,3.5,-,N/A,,Overcast,0,2013-06-24 22:49:00
3:56 PM,50.0,48.0,93,29.73,10.0,Variable,5.8,-,N/A,,Overcast,0,2013-06-24 22:56:00
4:26 PM,48.2,48.2,100,29.77,1.5,South,6.9,-,0.00,,Overcast,180,2013-06-24 23:26:00
4:28 PM,48.2,48.2,100,29.77,0.8,South,5.8,-,0.00,,Overcast,170,2013-06-24 23:28:00
4:37 PM,48.2,48.2,100,29.77,0.2,South,5.8,-,0.00,Fog,Fog,180,2013-06-24 23:37:00
4:56 PM,48.0,48.0,100,29.75,0.2,South,6.9,-,0.02,Fog-Rain,Light Rain,180,2013-06-24 23:56:00
5:25 PM,48.2,48.2,100,29.76,0.2,SSE,6.9,-,0.02,Fog-Rain,Light Rain,150,2013-06-25 00:25:00
5:56 PM,48.9,48.9,100,29.73,0.2,South,11.5,18.4,0.03,Fog,Fog,170,2013-06-25 00:56:00
6:56 PM,50.0,50.0,100,29.73,0.2,South,10.4,25.3,N/A,Fog,Fog,190,2013-06-25 01:56:00
7:56 PM,50.0,50.0,100,29.73,0.2,South,10.4,20.7,N/A,Fog,Fog,180,2013-06-25 02:56:00
8:56 PM,50.0,50.0,100,29.73,0.2,South,11.5,18.4,0.00,Fog-Rain,Light Rain,190,2013-06-25 03:56:00
9:56 PM,50.0,50.0,100,29.74,0.2,South,12.7,21.9,0.02,Fog-Rain,Light Rain,180,2013-06-25 04:56:00
10:56 PM,50.0,50.0,100,29.73,0.2,South,15.0,24.2,0.01,Fog,Fog,180,2013-06-25 05:56:00
11:56 PM,48.9,48.9,100,29.72,0.2,SSW,15.0,25.3,N/A,Fog,Fog,200,2013-06-25 06:56:00